Tampico, México

10:55 PM CDT en Octubre 15, 2018 (GMT -0500)
Gen Francisco Javier Mina

Tiempo Historia de MMTM - Mayo, 2018

Change the Weather History Date:

Jueves, Mayo 17, 2018

  Actual Average Record
Temperature  
Temperatura media 83 ° F -  
Temperatura máxima 93 ° F 88 ° F 95 ° F (2013)
Temperatura mínima 73 ° F 73 ° F 65 ° F (2014)
Cooling Degree Days 18    
Growing Degree Days 33 (Base 50)    
Moisture  
Punto de rocío 71 ° F    
Average Humidity 69    
Maximum Humidity 94    
Minimum Humidity 40    
Precipitación  
Precipitación 0.00 pul 0.13 pul - ()
Presión al nivel del mar  
Presión al nivel del mar 29.89 pul    
Viento  
Velocidad del viento 5 mph ()    
Velocidad máxima del viento 21 mph    
Max Gust Speed -    
Visibilidad 8.8 Millas    
Eventos      
Averages and records for this station are not official NWS values.
T = Trace of Precipitation, MM = Missing Value Source: Averaged Metar Reports

Daily Weather History Graph

Daily Weather History Graph

Search for Another Location

Airport or City:

Astronomía

May. 17, 2018 Salida Puesta
Hora real 6:50 AM CDT 8:05 PM CDT
Crepúsculo civil 6:26 AM CDT 8:29 PM CDT
Crepúsculo náutico 5:57 AM CDT 8:58 PM CDT
Crepúsculo astronómico 5:28 AM CDT 9:27 PM CDT
Luna 8:56 AM CDT (5/17) 10:38 PM CDT (5/17)
Horas de luz 14h 02m
Horas de luz
13h 14m
Creciente, 7% of the Moon is Illuminated
May 17
Creciente
May 21
Cuarto creciente
May 29
Luna llena
Jun 6
Cuarto menguante
Jun 13
Nueva

Hourly Weather History & Observations

Hora (CDT) Temp. Índice de calor Punto de rocío Humedad Presión Visibilidad Wind Dir Velocidad del viento Velocidad de ráfagas Precip Eventos Condiciones
12:40 AM 77 ° F - 71 ° F 77% 29.98 pul 6 mi ESE 6.7 mph - -   Nubes dispersas
3:40 AM 76 ° F - 72 ° F 84% 29.92 pul 6 mi SE 2.2 mph - -   Nubes dispersas
4:55 AM 75.2 ° F - 69.8 ° F 83% 29.88 pul 5.0 mi Norte - - N/A   Despejado
6:43 AM 73.4 ° F - 71.6 ° F 94% 29.93 pul 5.0 mi Sin viento Sin viento - N/A   Nubes dispersas
7:48 AM 75.2 ° F - 73.4 ° F 94% 29.93 pul 7.0 mi Sin viento Sin viento - N/A   Nubes dispersas
8:46 AM 80.6 ° F 84.6 ° F 71.6 ° F 74% 29.93 pul 7.0 mi Sin viento Sin viento - N/A   Nubes dispersas
9:45 AM 83 ° F - 69 ° F 54% 29.98 pul 14 mi SE 6.7 mph - -   Nubes dispersas
9:46 AM 82.4 ° F 87.2 ° F 71.6 ° F 70% 29.94 pul 10.0 mi Norte - - N/A   Parcialmente nublado
10:44 AM 82.4 ° F 86.3 ° F 69.8 ° F 66% 29.93 pul 10.0 mi Norte - - N/A   Nubes dispersas
11:50 AM 84.2 ° F 89.6 ° F 71.6 ° F 66% 29.92 pul 10.0 mi Norte - - N/A   Parcialmente nublado
12:40 PM 91 ° F - 70 ° F 40% 29.95 pul 15 mi ESE 6.7 mph - -   Parcialmente nublado
12:46 PM 84.2 ° F 89.6 ° F 71.6 ° F 66% 29.95 pul 10.0 mi Norte - - N/A   Despejado
1:47 PM 86.0 ° F 90.4 ° F 69.8 ° F 58% 29.90 pul 8.0 mi Norte - - N/A   Despejado
2:47 PM 86.0 ° F 90.4 ° F 69.8 ° F 58% 29.87 pul 8.0 mi Norte - - N/A   Despejado
3:46 PM 86.0 ° F 90.4 ° F 69.8 ° F 58% 29.85 pul 8.0 mi Norte - - N/A   Despejado
4:51 PM 86.0 ° F 91.8 ° F 71.6 ° F 62% 29.83 pul 8.0 mi Norte - - N/A   Despejado
5:40 PM 84.2 ° F 89.6 ° F 71.6 ° F 66% 29.82 pul 10.0 mi Este 18.4 mph - N/A   Despejado
6:40 PM 86 ° F - 74 ° F 59% 29.85 pul 15 mi Este 8.9 mph - -  
6:57 PM 82.4 ° F 87.2 ° F 71.6 ° F 70% 29.79 pul 10.0 mi ESE 20.7 mph - N/A   Despejado
7:41 PM 80.6 ° F 84.6 ° F 71.6 ° F 74% 29.82 pul 8.0 mi Norte - - N/A   Despejado
8:42 PM 78.8 ° F - 69.8 ° F 74% 29.84 pul 8.0 mi Norte - - N/A   Despejado
9:40 PM 79 ° F - 70 ° F 68% 29.89 pul 6 mi ESE 11.2 mph - -  
9:47 PM 78.8 ° F - 69.8 ° F 74% 29.86 pul 8.0 mi Norte - - N/A   Despejado
10:46 PM 78.8 ° F - 71.6 ° F 78% 29.88 pul 8.0 mi Norte - - N/A   Despejado